WA4FG Weather Reports


Display with metric or nautical units.
time (UTC)temp
F
wind
direction
speed
MPH
gust
MPH
rain 1hr
in
rain 24hr
in
rain mn
in
humidity
%
barometer
mb
20260904212114 95 303 0.0 2.0 0.00 0.00 0.00 51 1012.8
20260904211550 95 242 0.0 4.0 0.00 0.00 0.00 51 1012.8
20260904211049 95 194 0.0 4.0 0.00 0.00 0.00 51 1012.8
20260904210525 95 257 0.0 1.0 0.00 0.00 0.00 51 1012.9
20260904205521 96 196 0.0 0.0 0.00 0.00 0.00 51 1012.8
20260904205003 96 230 0.0 4.0 0.00 0.00 0.00 51 1012.9
20260904204502 95 256 0.0 0.0 0.00 0.00 0.00 50 1013.0
20260904203940 95 121 0.0 4.0 0.00 0.00 0.00 51 1013.1
20260904202932 95 243 0.0 0.0 0.00 0.00 0.00 52 1013.2
20260904202434 95 296 0.0 0.0 0.00 0.00 0.00 52 1013.3
20260904201909 95 296 0.0 0.0 0.00 0.00 0.00 52 1013.3
20260904201359 96 220 0.0 0.0 0.00 0.00 0.00 51 1013.5
20260904200845 96 333 0.0 0.0 0.00 0.00 0.00 50 1013.5
20260904200345 96 333 0.0 0.0 0.00 0.00 0.00 51 1013.6
20260904194713 96 254 0.0 1.0 0.00 0.00 0.00 51 1013.8
20260904194211 97 253 0.0 1.0 0.00 0.00 0.00 50 1014.0
20260904193708 97 218 0.0 0.0 0.00 0.00 0.00 51 1013.9
20260904193206 97 155 0.0 1.0 0.00 0.00 0.00 51 1014.1
20260904192705 97 164 0.0 5.0 0.00 0.00 0.00 51 1014.2
20260904192143 97 269 0.0 5.0 0.00 0.00 0.00 50 1014.3
20260904191040 97 240 0.0 1.0 0.00 0.00 0.00 50 1014.5
20260904190539 97 206 0.0 1.0 0.00 0.00 0.00 50 1014.6
20260904190016 96 205 0.0 2.0 0.00 0.00 0.00 54 1014.6
20260904185519 95 325 0.0 2.0 0.00 0.00 0.00 52 1014.7
20260904184933 95 21 0.0 2.0 0.00 0.00 0.00 54 1014.8
20260904184431 94 226 0.0 0.0 0.00 0.00 0.00 54 1014.9
20260904183927 94 250 0.0 2.0 0.00 0.00 0.00 54 1014.9
20260904183423 94 188 0.0 2.0 0.00 0.00 0.00 57 1015.0
20260904182900 94 263 0.0 0.0 0.00 0.00 0.00 55 1015.0
20260904182359 95 255 0.0 0.0 0.00 0.00 0.00 55 1015.1
20260904181841 95 304 0.0 0.0 0.00 0.00 0.00 54 1015.2
20260904181313 94 159 0.0 0.0 0.00 0.00 0.00 56 1015.4
20260904180750 94 148 0.0 1.0 0.00 0.00 0.00 58 1015.4
20260904180248 94 148 0.0 7.0 0.00 0.00 0.00 56 1015.5
20260904175242 95 333 0.0 1.0 0.00 0.00 0.00 55 1015.6
20260904174710 95 237 0.0 4.0 0.00 0.00 0.00 54 1015.6
20260904174207 94 94 0.0 0.0 0.00 0.00 0.00 57 1015.6
20260904173641 94 134 0.0 0.0 0.00 0.00 0.00 56 1015.8
20260904173150 94 134 0.0 1.0 0.00 0.00 0.00 55 1015.8
20260904172637 94 134 0.0 1.0 0.00 0.00 0.00 56 1016.1
20260904172124 94 193 0.0 0.0 0.00 0.00 0.00 57 1016.1
20260904171623 95 190 0.0 0.0 0.00 0.00 0.00 55 1016.2
20260904171120 95 281 0.0 0.0 0.00 0.00 0.00 55 1016.2
20260904170555 95 281 0.0 0.0 0.00 0.00 0.00 55 1016.2
20260904170027 95 281 0.0 0.0 0.00 0.00 0.00 53 1016.3
20260904165524 95 303 0.0 0.0 0.00 0.00 0.00 57 1016.3
20260904164422 94 206 0.0 0.0 0.00 0.00 0.00 56 1016.3
20260904163920 94 207 0.0 0.0 0.00 0.00 0.00 58 1016.4
20260904163415 93 200 0.0 0.0 0.00 0.00 0.00 58 1016.5
20260904162913 93 145 0.0 0.0 0.00 0.00 0.00 58 1016.6
20260904162401 93 144 0.0 0.0 0.00 0.00 0.00 58 1016.6
20260904161352 93 147 0.0 1.0 0.00 0.00 0.00 58 1016.7
20260904160849 93 147 0.0 1.0 0.00 0.00 0.00 59 1016.7
20260904160346 93 146 0.0 1.0 0.00 0.00 0.00 58 1016.7
20260904155843 93 90 0.0 0.0 0.00 0.00 0.00 59 1016.8
20260904155317 92 123 0.0 0.0 0.00 0.00 0.00 62 1016.8
20260904154750 92 121 0.0 0.0 0.00 0.00 0.00 60 1016.8
20260904152628 91 173 0.0 0.0 0.00 0.00 0.00 64 1016.8
20260904152126 90 173 0.0 0.0 0.00 0.00 0.00 64 1016.7
20260904151605 90 172 0.0 0.0 0.00 0.00 0.00 64 1016.7
20260904151032 90 171 0.0 0.0 0.00 0.00 0.00 64 1016.7
20260904150530 89 170 0.0 0.0 0.00 0.00 0.00 68 1016.7
20260904145437 88 105 0.0 0.0 0.00 0.00 0.00 69 1016.6
20260904144923 87 105 0.0 0.0 0.00 0.00 0.00 72 1016.5
20260904144400 86 105 0.0 0.0 0.00 0.00 0.00 72 1016.6
20260904143858 85 105 0.0 0.0 0.00 0.00 0.00 79 1016.6
20260904143330 84 105 0.0 0.0 0.00 0.00 0.00 80 1016.6
20260904142827 83 105 0.0 0.0 0.00 0.00 0.00 80 1016.6
20260904142301 82 105 0.0 0.0 0.00 0.00 0.00 84 1016.5
20260904141734 82 105 0.0 0.0 0.00 0.00 0.00 87 1016.5
20260904141231 81 105 0.0 0.0 0.00 0.00 0.00 87 1016.6
20260904140224 80 105 0.0 0.0 0.00 0.00 0.00 91 1016.7
20260904135721 80 105 0.0 0.0 0.00 0.00 0.00 92 1016.6
20260904135155 79 105 0.0 0.0 0.00 0.00 0.00 95 1016.6
20260904134631 79 105 0.0 0.0 0.00 0.00 0.00 97 1016.6
20260904134122 78 105 0.0 0.0 0.00 0.00 0.00 97 1016.5
20260904133622 78 105 0.0 0.0 0.00 0.00 0.00 99 1016.5
20260904133045 77 105 0.0 0.0 0.00 0.00 0.00 99 1016.5
20260904132518 77 105 0.0 0.0 0.00 0.00 0.00 100 1016.5
20260904132028 77 105 0.0 0.0 0.00 0.00 0.00 100 1016.5
20260904131453 76 105 0.0 0.0 0.00 0.00 0.00 100 1016.5
20260904130952 76 105 0.0 0.0 0.00 0.00 0.00 100 1016.5
20260904130439 76 105 0.0 0.0 0.00 0.00 0.00 100 1016.5
20260904125927 76 105 0.0 0.0 0.00 0.00 0.00 100 1016.4
20260904124831 76 105 0.0 0.0 0.00 0.00 0.00 100 1016.3
20260904124328 76 105 0.0 0.0 0.00 0.00 0.00 100 1016.2
20260904123806 76 105 0.0 0.0 0.00 0.00 0.00 100 1016.3
20260904123313 75 105 0.0 0.0 0.00 0.00 0.00 100 1016.2
20260904122802 75 105 0.0 0.0 0.00 0.00 0.00 100 1016.1
20260904121721 75 105 0.0 0.0 0.00 0.00 0.00 100 1015.9
20260904121220 75 105 0.0 0.0 0.00 0.00 0.00 100 1015.8
20260904120653 75 105 0.0 0.0 0.00 0.00 0.00 100 1015.8
20260904120154 75 105 0.0 0.0 0.00 0.00 0.00 99 1015.8
20260904115652 75 105 0.0 0.0 0.00 0.00 0.00 99 1015.8
20260904115134 75 105 0.0 0.0 0.00 0.00 0.00 99 1015.7
20260904114633 75 105 0.0 0.0 0.00 0.00 0.00 99 1015.6
20260904113621 75 105 0.0 0.0 0.00 0.00 0.00 99 1015.6
20260904113100 75 105 0.0 0.0 0.00 0.00 0.00 99 1015.5
20260904112031 75 105 0.0 0.0 0.00 0.00 0.00 99 1015.4
20260904111530 75 105 0.0 0.0 0.00 0.00 0.00 99 1015.4
20260904111009 75 105 0.0 0.0 0.00 0.00 0.00 99 1015.3
20260904110503 75 105 0.0 0.0 0.00 0.00 0.00 99 1015.2
20260904105947 75 105 0.0 0.0 0.00 0.00 0.00 99 1015.2
20260904105423 75 105 0.0 0.0 0.00 0.00 0.00 99 1015.2
20260904104924 75 105 0.0 0.0 0.00 0.00 0.00 99 1015.2
20260904104423 75 105 0.0 0.0 0.00 0.00 0.00 99 1015.1
20260904103923 75 105 0.0 0.0 0.00 0.00 0.00 99 1015.2
20260904103407 76 105 0.0 0.0 0.00 0.00 0.00 99 1015.2
20260904102841 76 105 0.0 0.0 0.00 0.00 0.00 98 1015.2
20260904102324 76 105 0.0 0.0 0.00 0.00 0.00 98 1015.1
20260904101822 76 105 0.0 0.0 0.00 0.00 0.00 98 1015.1
20260904101257 76 105 0.0 0.0 0.00 0.00 0.00 98 1015.1
20260904100733 76 105 0.0 0.0 0.00 0.00 0.00 98 1015.0
20260904100222 76 105 0.0 0.0 0.00 0.00 0.00 98 1015.0
20260904095659 76 105 0.0 0.0 0.00 0.00 0.00 98 1014.9
20260904095133 76 105 0.0 0.0 0.00 0.00 0.00 98 1014.8
20260904094606 76 105 0.0 0.0 0.00 0.00 0.00 98 1014.8
20260904094040 76 105 0.0 0.0 0.00 0.00 0.00 98 1014.9
20260904093514 76 105 0.0 0.0 0.00 0.00 0.00 98 1014.8
20260904093007 76 105 0.0 0.0 0.00 0.00 0.00 98 1014.8
20260904092438 76 105 0.0 0.0 0.00 0.00 0.00 98 1014.9
20260904091432 76 105 0.0 0.0 0.00 0.00 0.00 98 1014.8
20260904090917 76 105 0.0 0.0 0.00 0.00 0.00 98 1014.8
20260904090415 76 105 0.0 0.0 0.00 0.00 0.00 98 1014.8
20260904084900 76 105 0.0 0.0 0.00 0.00 0.00 97 1014.8
20260904084333 76 105 0.0 0.0 0.00 0.00 0.00 97 1014.7
20260904083326 77 105 0.0 0.0 0.00 0.00 0.00 97 1014.8
20260904082807 77 105 0.0 0.0 0.00 0.00 0.00 97 1014.8
20260904082317 77 105 0.0 0.0 0.00 0.00 0.00 97 1014.8
20260904080204 77 105 0.0 0.0 0.00 0.00 0.00 97 1014.9
20260904075659 77 105 0.0 0.0 0.00 0.00 0.00 97 1014.9
20260904075123 77 105 0.0 0.0 0.00 0.00 0.00 97 1014.9
20260904074108 77 105 0.0 0.0 0.00 0.00 0.00 97 1014.9
20260904073610 77 105 0.0 0.0 0.00 0.00 0.00 97 1015.0
20260904073055 77 105 0.0 0.0 0.00 0.00 0.00 97 1015.0
20260904072556 77 105 0.0 0.0 0.00 0.00 0.00 97 1015.0
20260904070959 77 105 0.0 0.0 0.00 0.00 0.00 96 1014.9
20260904070457 77 105 0.0 0.0 0.00 0.00 0.00 96 1014.8
20260904065941 77 105 0.0 0.0 0.00 0.00 0.00 96 1014.8
20260904065441 77 105 0.0 0.0 0.00 0.00 0.00 96 1014.8
20260904064949 77 105 0.0 0.0 0.00 0.00 0.00 96 1014.8
20260904064434 77 105 0.0 0.0 0.00 0.00 0.00 96 1014.8
20260904063908 77 105 0.0 0.0 0.00 0.00 0.00 96 1014.8
20260904063342 77 105 0.0 0.0 0.00 0.00 0.00 95 1014.9
20260904062328 78 105 0.0 0.0 0.00 0.00 0.00 95 1015.0
20260904061802 78 105 0.0 0.0 0.00 0.00 0.00 95 1015.0
20260904060732 78 105 0.0 0.0 0.00 0.00 0.00 94 1014.9
20260904060207 78 105 0.0 0.0 0.00 0.00 0.00 94 1015.0
20260904054618 78 105 0.0 0.0 0.00 0.00 0.00 93 1014.9
20260904054050 78 105 0.0 0.0 0.00 0.00 0.00 93 1014.9
20260904053523 78 105 0.0 0.0 0.00 0.00 0.00 93 1014.9
20260904053019 78 105 0.0 0.0 0.00 0.00 0.00 93 1015.0
20260904052005 78 105 0.0 0.0 0.00 0.00 0.00 92 1015.0
20260904051502 78 105 0.0 0.0 0.00 0.00 0.00 92 1014.9
20260904050959 78 105 0.0 0.0 0.00 0.00 0.00 92 1015.0
20260904050456 78 105 0.0 0.0 0.00 0.00 0.00 92 1014.9
20260904045952 78 105 0.0 0.0 0.00 0.00 0.00 92 1015.1
20260904045448 78 105 0.0 0.0 0.00 0.00 0.00 91 1015.0
20260904044411 79 105 0.0 0.0 0.00 0.00 0.00 91 1015.0
20260904042842 79 105 0.0 0.0 0.00 0.00 0.00 91 1015.0
20260904042339 79 105 0.0 0.0 0.00 0.00 0.00 91 1014.9
20260904040231 79 105 0.0 0.0 0.00 0.00 0.00 90 1015.0
20260904035729 80 105 0.0 0.0 0.00 0.00 0.00 90 1015.0
20260904035206 80 105 0.0 0.0 0.00 0.00 0.00 89 1015.0
20260904034704 80 105 0.0 0.0 0.00 0.00 0.00 89 1015.1
20260904033702 80 105 0.0 0.0 0.00 0.00 0.00 89 1015.2
20260904033204 80 105 0.0 0.0 0.00 0.00 0.00 89 1015.2
20260904032639 80 105 0.0 0.0 0.00 0.00 0.00 88 1015.3
20260904032141 80 105 0.0 0.0 0.00 0.00 0.00 88 1015.2
20260904031626 80 105 0.0 0.0 0.00 0.00 0.00 88 1015.2
20260904031127 80 105 0.0 0.0 0.00 0.00 0.00 87 1015.1
20260904030607 80 105 0.0 0.0 0.00 0.00 0.00 87 1015.1
20260904030020 81 105 0.0 0.0 0.00 0.00 0.00 87 1015.2
20260904025517 81 105 0.0 0.0 0.00 0.00 0.00 86 1015.2
20260904025014 81 105 0.0 0.0 0.00 0.00 0.00 86 1015.2
20260904024510 81 105 0.0 0.0 0.00 0.00 0.00 86 1015.2
20260904024000 81 105 0.0 0.0 0.00 0.00 0.00 86 1015.3
20260904022930 81 105 0.0 0.0 0.00 0.00 0.00 86 1015.3
20260904022428 81 105 0.0 0.0 0.00 0.00 0.00 85 1015.3
20260904021902 81 105 0.0 0.0 0.00 0.00 0.00 85 1015.2
20260904020914 82 105 0.0 0.0 0.00 0.00 0.00 84 1015.1
20260904020359 82 105 0.0 0.0 0.00 0.00 0.00 84 1015.1
20260904015828 82 105 0.0 0.0 0.00 0.00 0.00 84 1015.0
20260904015307 82 105 0.0 0.0 0.00 0.00 0.00 83 1015.0
20260904014808 82 105 0.0 0.0 0.00 0.00 0.00 82 1015.0
20260904014244 82 105 0.0 0.0 0.00 0.00 0.00 82 1014.9
20260904013738 83 105 0.0 0.0 0.00 0.00 0.00 82 1014.8
20260904012712 83 105 0.0 0.0 0.00 0.00 0.00 82 1014.8
20260904012209 83 105 0.0 0.0 0.00 0.00 0.00 81 1014.7
20260904011647 84 105 0.0 0.0 0.00 0.00 0.00 80 1014.6
20260904011121 84 105 0.0 0.0 0.00 0.00 0.00 78 1014.6
20260904010557 84 105 0.0 0.0 0.00 0.00 0.00 78 1014.5
20260904010034 85 105 0.0 0.0 0.00 0.00 0.00 78 1014.4
20260904003943 86 105 0.0 0.0 0.00 0.00 0.00 75 1014.3
20260904003441 86 105 0.0 0.0 0.00 0.00 0.00 74 1014.3
20260904002926 87 105 0.0 0.0 0.00 0.00 0.00 73 1014.2
20260904001905 87 105 0.0 0.0 0.00 0.00 0.00 73 1014.2
20260904001348 87 105 0.0 0.0 0.00 0.00 0.00 71 1014.1
20260904000828 88 105 0.0 0.0 0.00 0.00 0.00 71 1014.2
20260904000318 88 105 0.0 0.0 0.00 0.00 0.00 69 1014.2
20260903234245 89 105 0.0 0.0 0.00 0.00 0.00 68 1014.0
20260903233755 89 105 0.0 0.0 0.00 0.00 0.00 69 1014.0
20260903233227 89 105 0.0 0.0 0.00 0.00 0.00 69 1014.0
20260903232725 89 105 0.0 0.0 0.00 0.00 0.00 67 1014.1
20260903231150 90 329 0.0 0.0 0.00 0.00 0.00 68 1013.9
20260903230644 91 329 0.0 0.0 0.00 0.00 0.00 66 1013.9
20260903225137 91 329 0.0 0.0 0.00 0.00 0.00 64 1013.7
20260903224611 91 329 0.0 0.0 0.00 0.00 0.00 61 1013.7
20260903224109 92 329 0.0 0.0 0.00 0.00 0.00 61 1013.7
20260903223049 93 329 0.0 0.0 0.00 0.00 0.00 57 1013.7
20260903222520 93 329 0.0 0.0 0.00 0.00 0.00 57 1013.7
20260903222015 93 329 0.0 0.0 0.00 0.00 0.00 56 1013.7
20260903221512 93 329 0.0 2.0 0.00 0.00 0.00 55 1013.7
20260903215909 95 300 0.0 1.0 0.00 0.00 0.00 57 1013.5
20260903214835 95 191 0.0 2.0 0.00 0.00 0.00 50 1013.4
20260903214305 95 207 0.0 0.0 0.00 0.00 0.00 51 1013.4
20260903213804 95 111 0.0 0.0 0.00 0.00 0.00 52 1013.4
20260903213300 95 86 0.0 0.0 0.00 0.00 0.00 51 1013.4
20260903212748 96 340 0.0 0.0 0.00 0.00 0.00 51 1013.4
20260903212246 96 343 0.0 1.0 0.00 0.00 0.00 48 1013.4